This is the latest recevied weather packets stored in our database for station/object KC5DP. If no packets are shown the sender has not sent any weather packets the latest 10 day(s).
| Time | Temp. | Humidity | Pressure | Rain* | Wind** | Luminosity | Snow |
|---|---|---|---|---|---|---|---|
| 1777403740 | 29.44° C | 69% | 1015.6 hPa | 0 mm | - | 488 W/m² | - |
| 1777403438 | 30° C | 69% | 1015.8 hPa | 0 mm | - | 461 W/m² | - |
| 1777403138 | 30° C | 69% | 1015.5 hPa | 0 mm | - | 546 W/m² | - |
| 1777402834 | 29.44° C | 68% | 1015.4 hPa | 0 mm | - | 422 W/m² | - |
| 1777402531 | 30° C | 69% | 1015.3 hPa | 0 mm | - | 385 W/m² | - |
| 1777402228 | 30.56° C | 70% | 1015.5 hPa | 0 mm | - | 332 W/m² | - |
| 1777401923 | 30° C | 68% | 1015.6 hPa | 0 mm | - | 594 W/m² | - |
| 1777401622 | 30.56° C | 69% | 1015.8 hPa | 0 mm | - | 602 W/m² | - |
| 1777401319 | 30° C | 69% | 1015.8 hPa | 0 mm | - | 647 W/m² | - |
| 1777401015 | 30° C | 68% | 1015.7 hPa | 0 mm | - | 303 W/m² | - |
| 1777400711 | 30° C | 67% | 1015.8 hPa | 0 mm | - | 749 W/m² | - |
| 1777400409 | 30° C | 67% | 1015.9 hPa | 0 mm | - | 811 W/m² | - |
| 1777400104 | 30° C | 71% | 1015.9 hPa | 0 mm | - | 615 W/m² | - |
| 1777399801 | 29.44° C | 70% | 1016.2 hPa | 0 mm | - | 507 W/m² | - |
| 1777399498 | 30° C | 67% | 1016.4 hPa | 0 mm | - | 774 W/m² | - |
| 1777399195 | 30° C | 69% | 1016.5 hPa | 0 mm | - | 794 W/m² | - |
| 1777398892 | 30° C | 67% | 1016.2 hPa | 0 mm | - | 819 W/m² | - |
| 1777398589 | 29.44° C | 69% | 1016.3 hPa | 0 mm | - | 846 W/m² | - |
| 1777398285 | 29.44° C | 69% | 1016.3 hPa | 0 mm | - | 897 W/m² | - |
| 1777397983 | 29.44° C | 72% | 1016.4 hPa | 0 mm | - | 710 W/m² | - |
| 1777397679 | 30° C | 69% | 1016.3 hPa | 0 mm | - | 753 W/m² | - |
| 1777397375 | 30.56° C | 70% | 1016.2 hPa | 0 mm | - | 755 W/m² | - |
| 1777397072 | 29.44° C | 72% | 1016.3 hPa | 0 mm | - | 751 W/m² | - |
| 1777396768 | 28.89° C | 74% | 1016.4 hPa | 0 mm | - | 860 W/m² | - |
| 1777396465 | 29.44° C | 72% | 1016.6 hPa | 0 mm | - | 402 W/m² | - |
* Rain latest hour (hover to see other rain measurements)
** Current wind speed in m/s (hover to see current wind gust speed)